GW2765 Weather Reports


Display with metric or nautical units.
time (UTC)temp
F
wind
direction
speed
MPH
gust
MPH
rain 1hr
in
rain 24hr
in
rain mn
in
humidity
%
barometer
mb
20260504110519 65 177 0.0 3.0 0.00 0.00 0.00 48 1010.7
20260504110252 65 212 0.0 1.0 0.00 0.00 0.00 47 1010.6
20260504100503 65 139 1.0 3.0 0.00 0.00 0.00 46 1010.6
20260504081430 68 269 1.0 3.0 0.00 0.00 0.00 41 1011.9
20260504080931 68 299 2.0 6.0 0.00 0.00 0.00 40 1011.6
20260504080429 68 217 3.0 11.0 0.00 0.00 0.00 38 1011.4
20260504050415 71 18 3.0 7.0 0.00 0.00 0.00 43 1009.3
20260504045915 71 75 3.0 8.0 0.00 0.00 0.00 43 1009.3
20260504045411 71 70 2.0 8.0 0.00 0.00 0.00 42 1009.1
20260504044912 71 73 2.0 6.0 0.00 0.00 0.00 42 1009.1
20260504044411 72 77 2.0 5.0 0.00 0.00 0.00 42 1009.0
20260504043910 72 82 3.0 8.0 0.00 0.00 0.00 41 1008.9
20260504043410 72 89 3.0 8.0 0.00 0.00 0.00 41 1008.9
20260504043140 72 82 1.0 6.0 0.00 0.00 0.00 40 1008.9
20260504042411 72 124 1.0 4.0 0.00 0.00 0.00 42 1009.1
20260504041910 72 68 0.0 4.0 0.00 0.00 0.00 42 1009.0
20260504041411 72 116 1.0 5.0 0.00 0.00 0.00 42 1008.7
20260504040909 72 108 1.0 5.0 0.00 0.00 0.00 43 1008.8
20260504040407 73 96 1.0 6.0 0.00 0.00 0.00 41 1008.8
20260504040139 73 92 2.0 6.0 0.00 0.00 0.00 41 1008.8
20260504035407 74 88 1.0 5.0 0.00 0.00 0.00 41 1008.7
20260504034906 74 60 2.0 8.0 0.00 0.00 0.00 39 1008.4
20260504034407 74 110 3.0 8.0 0.00 0.00 0.00 39 1008.4
20260504033906 75 102 2.0 8.0 0.00 0.00 0.00 37 1008.3
20260504033407 75 99 3.0 8.0 0.00 0.00 0.00 39 1008.4
20260504032907 75 98 4.0 11.0 0.00 0.00 0.00 38 1008.2
20260504032404 76 67 4.0 11.0 0.00 0.00 0.00 36 1008.0
20260504031902 76 104 4.0 10.0 0.00 0.00 0.00 35 1007.9
20260504031403 77 51 3.0 9.0 0.00 0.00 0.00 34 1007.8
20260504030906 77 179 6.0 15.0 0.00 0.00 0.00 33 1007.3
20260504030406 77 193 8.0 15.0 0.00 0.00 0.00 33 1007.2
20260504025906 77 186 9.0 23.0 0.00 0.00 0.00 35 1007.0
20260504025407 77 217 6.0 23.0 0.00 0.00 0.00 33 1007.2
20260504024904 78 203 1.0 11.0 0.00 0.00 0.00 34 1007.5
20260504024632 78 170 1.0 6.0 0.00 0.00 0.00 35 1007.5
20260504023903 78 327 1.0 6.0 0.00 0.00 0.00 35 1007.3
20260504023402 79 269 1.0 3.0 0.00 0.00 0.00 35 1007.2
20260504022901 79 340 1.0 6.0 0.00 0.00 0.00 34 1007.1
20260504022403 79 52 2.0 8.0 0.00 0.00 0.00 34 1006.8
20260504021901 79 91 3.0 8.0 0.00 0.00 0.00 35 1006.7
20260504021408 80 62 1.0 5.0 0.00 0.00 0.00 35 1006.7
20260504020401 80 35 1.0 4.0 0.00 0.00 0.00 34 1006.7
20260504020135 81 27 1.0 5.0 0.00 0.00 0.00 34 1006.7
20260504015631 81 44 2.0 14.0 0.00 0.00 0.00 33 1006.6
20260504015128 81 82 3.0 14.0 0.00 0.00 0.00 33 1006.6
20260504014403 82 34 5.0 17.0 0.00 0.00 0.00 32 1006.5
20260504013900 83 225 6.0 17.0 0.00 0.00 0.00 30 1006.8
20260504013401 83 165 2.0 14.0 0.00 0.00 0.00 30 1006.6
20260504012900 83 248 0.0 3.0 0.00 0.00 0.00 29 1006.8
20260504012401 84 332 0.0 2.0 0.00 0.00 0.00 31 1006.8
20260504011900 84 295 1.0 5.0 0.00 0.00 0.00 30 1006.7
20260504011357 85 225 2.0 5.0 0.00 0.00 0.00 30 1006.9
20260504011136 85 328 2.0 5.0 0.00 0.00 0.00 31 1006.6
20260504010350 85 146 2.0 8.0 0.00 0.00 0.00 29 1006.3
20260504005845 86 68 4.0 13.0 0.00 0.00 0.00 29 1006.4
20260504005337 87 328 6.0 17.0 0.00 0.00 0.00 24 1006.5
20260504004835 86 237 8.0 18.0 0.00 0.00 0.00 24 1006.6
20260504004333 86 248 9.0 20.0 0.00 0.00 0.00 27 1006.4
20260504003833 86 173 12.0 22.0 0.00 0.00 0.00 27 1006.3
20260504003331 86 288 13.0 23.0 0.00 0.00 0.00 28 1006.0
20260504002830 86 262 14.0 27.0 0.00 0.00 0.00 27 1005.8
20260504002332 86 255 14.0 27.0 0.00 0.00 0.00 27 1005.9
20260504001834 87 212 14.0 26.0 0.00 0.00 0.00 26 1005.7
20260504001329 87 243 13.0 26.0 0.00 0.00 0.00 26 1005.6
20260504000830 87 245 14.0 31.0 0.00 0.00 0.00 26 1005.5
20260504000329 87 243 16.0 31.0 0.00 0.00 0.00 26 1005.6
20260503235829 87 269 16.0 28.0 0.00 0.00 0.00 24 1005.6
20260503235330 88 266 17.0 31.0 0.00 0.00 0.00 26 1005.9
20260503235052 88 246 15.0 31.0 0.00 0.00 0.00 26 1005.7
20260503234557 89 250 14.0 28.0 0.00 0.00 0.00 23 1005.7
20260503233829 89 255 10.0 25.0 0.00 0.00 0.00 24 1005.9
20260503233328 89 146 6.0 17.0 0.00 0.00 0.00 24 1006.0
20260503232831 89 159 7.0 17.0 0.00 0.00 0.00 27 1006.3
20260503232325 88 226 7.0 26.0 0.00 0.00 0.00 28 1006.4
20260503232052 89 264 5.0 26.0 0.00 0.00 0.00 30 1006.1
20260503231323 88 297 5.0 12.0 0.00 0.00 0.00 29 1006.3
20260503230831 87 326 4.0 13.0 0.00 0.00 0.00 32 1006.0
20260503225823 87 316 7.0 15.0 0.00 0.00 0.00 32 1006.0
20260503225322 87 348 7.0 15.0 0.00 0.00 0.00 33 1006.0
20260503224825 87 330 8.0 15.0 0.00 0.00 0.00 32 1005.9
20260503224322 87 331 7.0 14.0 0.00 0.00 0.00 32 1005.9
20260503223823 87 334 6.0 14.0 0.00 0.00 0.00 32 1005.9
20260503223320 87 6 5.0 12.0 0.00 0.00 0.00 32 1006.1
20260503222821 87 42 5.0 12.0 0.00 0.00 0.00 32 1006.1
20260503222320 87 307 5.0 10.0 0.00 0.00 0.00 31 1006.2
20260503221818 87 242 6.0 14.0 0.00 0.00 0.00 33 1006.2
20260503221319 86 308 7.0 15.0 0.00 0.00 0.00 31 1006.2
20260503220818 87 354 6.0 15.0 0.00 0.00 0.00 32 1006.3
20260503220319 87 314 6.0 11.0 0.00 0.00 0.00 32 1006.3
20260503215817 87 346 7.0 15.0 0.00 0.00 0.00 33 1006.5
20260503215312 87 297 6.0 15.0 0.00 0.00 0.00 32 1006.6
20260503214808 87 335 6.0 13.0 0.00 0.00 0.00 33 1006.5
20260503214532 87 347 5.0 13.0 0.00 0.00 0.00 32 1006.7
20260503213806 88 316 5.0 12.0 0.00 0.00 0.00 32 1006.8
20260503213547 88 331 5.0 11.0 0.00 0.00 0.00 31 1006.8
20260503212538 89 11 4.0 9.0 0.00 0.00 0.00 30 1006.7
20260503211804 88 310 5.0 13.0 0.00 0.00 0.00 31 1006.8
20260503211304 88 351 6.0 13.0 0.00 0.00 0.00 31 1006.7
20260503211034 88 342 5.0 13.0 0.00 0.00 0.00 30 1006.8
20260503210303 90 356 3.0 13.0 0.00 0.00 0.00 28 1006.9
20260503205805 90 48 4.0 12.0 0.00 0.00 0.00 30 1007.0
20260503205306 89 314 4.0 12.0 0.00 0.00 0.00 29 1007.0
20260503204804 90 327 4.0 8.0 0.00 0.00 0.00 29 1006.9
20260503204306 90 2 3.0 9.0 0.00 0.00 0.00 29 1007.0
20260503203804 90 343 3.0 9.0 0.00 0.00 0.00 29 1007.0
20260503203303 90 50 4.0 10.0 0.00 0.00 0.00 28 1007.2
20260503203026 89 23 4.0 11.0 0.00 0.00 0.00 29 1007.2
20260503202301 89 330 3.0 11.0 0.00 0.00 0.00 28 1007.2
20260503201801 90 354 2.0 7.0 0.00 0.00 0.00 28 1007.3
20260503201302 89 335 2.0 7.0 0.00 0.00 0.00 28 1007.3
20260503200802 89 85 3.0 7.0 0.00 0.00 0.00 28 1007.4
20260503200301 89 330 3.0 7.0 0.00 0.00 0.00 29 1007.6
20260503195801 89 42 4.0 8.0 0.00 0.00 0.00 28 1007.7
20260503195301 89 25 4.0 8.0 0.00 0.00 0.00 30 1007.8
20260503194803 89 70 4.0 8.0 0.00 0.00 0.00 28 1007.9
20260503194302 89 349 4.0 11.0 0.00 0.00 0.00 29 1007.9
20260503193801 89 11 3.0 11.0 0.00 0.00 0.00 28 1007.9
20260503193301 89 328 2.0 7.0 0.00 0.00 0.00 27 1007.9
20260503192301 90 296 1.0 6.0 0.00 0.00 0.00 26 1008.2
20260503191801 89 214 2.0 6.0 0.00 0.00 0.00 27 1008.1
20260503191532 88 49 2.0 6.0 0.00 0.00 0.00 29 1008.2
20260503190802 88 68 2.0 6.0 0.00 0.00 0.00 28 1008.3
20260503190535 89 355 2.0 8.0 0.00 0.00 0.00 29 1008.4
20260503185802 88 62 3.0 10.0 0.00 0.00 0.00 28 1008.4
20260503185258 88 58 3.0 10.0 0.00 0.00 0.00 29 1008.3
20260503185022 88 13 3.0 8.0 0.00 0.00 0.00 30 1008.3
20260503184515 88 25 3.0 8.0 0.00 0.00 0.00 29 1008.4
20260503183741 88 44 2.0 6.0 0.00 0.00 0.00 31 1008.4
20260503183240 88 28 2.0 6.0 0.00 0.00 0.00 30 1008.6
20260503182457 88 102 1.0 5.0 0.00 0.00 0.00 29 1008.6
20260503181958 87 129 1.0 5.0 0.00 0.00 0.00 29 1008.8
20260503181231 87 71 1.0 4.0 0.00 0.00 0.00 31 1008.8
20260503180731 86 330 1.0 3.0 0.00 0.00 0.00 32 1008.8
20260503180231 85 279 2.0 5.0 0.00 0.00 0.00 32 1008.8
20260503175730 85 13 2.0 5.0 0.00 0.00 0.00 32 1009.1
20260503175230 85 340 2.0 5.0 0.00 0.00 0.00 33 1009.2
20260503174958 85 307 1.0 4.0 0.00 0.00 0.00 36 1009.3
20260503174230 85 312 1.0 4.0 0.00 0.00 0.00 37 1009.2
20260503173731 85 28 1.0 4.0 0.00 0.00 0.00 34 1009.4
20260503173230 84 307 1.0 3.0 0.00 0.00 0.00 36 1009.3
20260503172730 84 75 1.0 3.0 0.00 0.00 0.00 37 1009.3
20260503172230 84 345 1.0 3.0 0.00 0.00 0.00 38 1009.3
20260503171730 83 23 1.0 3.0 0.00 0.00 0.00 40 1009.5
20260503171232 83 347 1.0 3.0 0.00 0.00 0.00 40 1009.4
20260503170959 83 58 1.0 4.0 0.00 0.00 0.00 40 1009.5
20260503170500 82 136 1.0 4.0 0.00 0.00 0.00 40 1009.6
20260503150729 75 91 0.0 1.0 0.00 0.00 0.00 54 1009.7
20260503150230 74 34 0.0 3.0 0.00 0.00 0.00 56 1009.6